Regional Weather Roundup
Issued by NWS New Orleans/Baton Rouge, LA

Home | Current Version | Previous Version | Graphics & Text | Print | Product List | Glossary On
Versions: 1 2 3 4 5 6 7 8 9 10 11 12 13 14 15 16 17 18 19 20 21 22 23 24 25 26 27 28 29 30 31 32 33 34 35 36 37 38 39 40 41 42 43 44 45 46 47 48 49 50
841
ASUS44 KLIX 252301
RWRLIX
NEW ORLEANS REGIONAL WEATHER ROUNDUP
NATIONAL WEATHER SERVICE NEW ORLEANS LA
500 PM CST SUN JAN 25 2015

NOTE: "FAIR" INDICATES FEW OR NO CLOUDS BELOW 12,000 FEET WITH NO
      SIGNIFICANT WEATHER AND/OR OBSTRUCTIONS TO VISIBILITY.
      SKY/WX - SKY CONDITION AND SIGNIFICANT WEATHER.
      TMP - AIR TEMPERATURE.     DP    - DEWPOINT TEMPERATURE.
      RH  - RELATIVE HUMIDITY.   PRES  - PRESSURE.
      HI  - HEAT INDEX.          WCI   - WIND CHILL INDEX.

*  THESE STATIONS ARE NOT NWS OR FAA STATIONS AND ARE NOT UNDER
   NWS QUALITY CONTROL.

LAZ038-040-048-061>063-065>067-069-260000-
SOUTHEAST LOUISIANA

CITY           SKY/WX    TMP DP  RH WIND       PRES   REMARKS
N.O. AUDUBON     N/A     61  44  52 MISG        N/A
N.O. INTL ARPT PTCLDY    63  38  39 SW23G30   29.87F
N.O. LAKEFRONT CLEAR     64  40  41 SW23G32   29.86F
N.O. DOWNTOWN*   N/A     63  39  42 SW16G23   29.88F
SLIDELL        CLEAR     63  39  41 SW12G21   29.85F
BATON ROUGE    CLEAR     64  39  39 SW16G28   29.86F
BOOTHVILLE     CLEAR     61  51  70 W21G29    29.93F
BELLE CHASSE   PTCLDY    62  38  40 SW17G28   29.87F
BOGALUSA*        N/A     66  36  32 SW15G21   29.85F
GALLIANO*      NOT AVBL
NEW ROADS*     NOT AVBL
GONZALES*      NOT AVBL
HAMMOND*       NOT AVBL
HOUMA*         CLEAR     61  43  51 SW16G29   29.92F
PORT FOURCHON* CLEAR     59  52  77 W16G25    29.98F

$$

MSZ070-080>082-260000-
SOUTHERN MISSISSIPPI

CITY           SKY/WX    TMP DP  RH WIND       PRES   REMARKS
MCCOMB         CLEAR     65  40  39 W12G20    29.85R
GULFPORT       CLEAR     62  37  39 SW14G20   29.85F
BILOXI         NOT AVBL
PASCAGOULA     CLEAR     59  46  62 SW10      29.86F
STENNIS ARPT*  CLEAR     63  34  34 W9G23     29.86F

$$

COASTAL OBSERVATIONS
LAKE AND NEARSHORE STATIONS

STATION/POSITION TIME  TEMP    WIND        PRES    WAVE
                       AIR SEA DIR/SP/G            HT/PER
                 (UTC) (F)     (DEG/KT/KT) (MB)    (FT/S)
PASCAGOULA       2200   60     230/ 19/ 24 1010.9
WAVELAND YACHT   2200   64     240/ 11/ 17 1010.5
GRAND ISLE       2200   61 58  260/ 19/ 27 1014.6
SOUTHWEST PASS   2200   62 48  270/ 26/ 30 1015.1
NEW CANAL        2200   65 53  240/  9/ 15 1012.5
SHELL BEACH      2200   63 54  230/ 24/ 29 1012.3

OFFSHORE STATIONS

STATION/POSITION TIME  TEMP    WIND        PRES    WAVE
                       AIR SEA DIR/SP/G            HT/PER
                 (UTC) (F)     (DEG/KT/KT) (MB)    (FT/S)
64 S DAUPHIN ISL 2237   64 71  250/ 27/ 33 1014.0    6/ 5

$$




USA.gov is the U.S. government's official web portal to all federal, state and local government web resources and services.